Date,TemperatureHighF,TemperatureAvgF,TemperatureLowF,DewpointHighF,DewpointAvgF,DewpointLowF,HumidityHigh,HumidityAvg,HumidityLow,PressureMaxIn,PressureMinIn,WindSpeedMaxMPH,WindSpeedAvgMPH,GustSpeedMaxMPH,PrecipitationSumIn
2013-1-1,51,49,46,26,16,7,41,28,19,30.03,29.82,7,1,8,0.60
2013-1-2,56,51,48,34,26,19,48,39,29,30.00,29.79,4,0,5,0.00
2013-1-3,55,48,39,25,19,10,38,32,26,30.18,29.97,5,1,7,0.00
2013-1-4,57,42,31,14,8,0,33,25,17,30.21,30.09,7,2,8,0.00
2013-1-5,51,41,31,10,4,-2,23,21,18,30.26,30.12,5,1,6,0.00
2013-1-6,59,47,40,18,10,3,28,22,17,30.12,29.91,8,2,13,0.00
2013-1-7,60,44,32,15,6,0,30,21,17,30.26,30.09,7,1,9,0.00
2013-1-8,54,43,31,15,7,-2,30,23,18,30.32,30.21,4,0,5,0.00
2013-1-9,67,56,50,25,17,9,31,21,17,30.32,30.24,4,0,5,0.00
2013-1-10,71,59,49,37,24,15,41,28,14,30.35,30.21,7,0,7,0.00
2013-1-11,58,56,54,36,32,23,46,40,27,30.21,30.03,4,0,7,0.44
2013-1-12,71,61,56,51,37,30,52,42,27,30.06,29.97,5,0,7,0.00
2013-1-13,67,60,55,45,38,33,48,44,37,30.03,29.94,4,0,5,0.00
2013-1-14,66,63,60,48,44,39,56,51,45,30.00,29.94,6,0,9,0.88
2013-1-15,63,58,51,47,42,34,57,55,52,30.00,29.91,5,1,6,0.40
2013-1-16,56,53,50,38,35,32,52,50,48,29.91,29.85,4,0,4,0.16
2013-1-17,55,51,40,38,33,22,52,50,47,30.09,29.62,7,1,10,1.64
2013-1-18,57,42,33,26,14,0,48,33,17,30.35,30.09,5,1,7,0.00
2013-1-19,58,42,31,19,8,2,36,25,17,30.35,30.09,7,1,8,0.00
2013-1-20,67,48,33,18,9,0,30,21,15,30.09,29.91,9,1,10,0.00
2013-1-21,64,45,32,16,6,-2,27,20,15,29.97,29.85,13,2,23,0.00
2013-1-22,50,40,33,9,3,-1,22,21,19,30.12,29.94,13,5,15,0.00
2013-1-23,55,42,30,12,4,-3,23,20,17,30.21,29.97,16,4,18,0.00
2013-1-24,59,48,33,14,7,-2,23,19,17,30.35,29.91,19,5,21,0.00
2013-1-25,33,32,30,3,-2,-4,28,24,23,30.35,29.97,6,1,7,0.00
2013-1-26,58,41,32,22,10,0,39,28,17,30.18,29.97,4,0,5,0.08
2013-1-27,53,42,32,12,7,2,31,24,18,30.41,30.18,7,1,8,0.00
2013-1-28,54,48,43,15,9,4,27,20,18,30.32,30.15,4,0,5,0.00
2013-1-29,68,55,42,32,22,13,36,29,22,30.15,29.88,5,0,7,0.00
2013-1-30,66,60,48,43,36,21,49,41,27,29.91,29.38,11,3,21,1.23
2013-1-31,52,43,37,23,6,0,37,22,18,29.97,29.53,19,7,24,0.00
2013-2-1,48,39,31,7,2,-2,23,21,19,30.24,29.88,19,5,23,0.00
2013-2-2,49,35,25,17,3,-9,41,26,19,30.24,29.94,9,2,11,0.24
2013-2-3,56,43,34,15,10,4,41,28,17,29.94,29.79,14,4,21,0.00
2013-2-4,53,42,32,11,4,-2,23,20,18,30.03,29.88,7,1,10,0.00
2013-2-5,62,48,35,15,8,0,28,20,16,29.88,29.79,13,3,19,0.00
2013-2-6,71,51,36,23,13,5,34,23,14,30.06,29.88,7,1,10,0.00
2013-2-7,53,47,42,19,10,4,33,23,18,30.09,29.85,6,1,7,0.04
2013-2-8,60,50,41,26,17,4,37,27,16,30.00,29.79,9,2,14,0.00
2013-2-9,65,46,31,16,7,-1,30,21,15,30.18,29.97,7,1,7,0.00
2013-2-10,61,48,38,18,10,2,29,21,16,30.26,30.03,5,1,7,0.00
2013-2-11,58,53,49,35,28,18,43,37,29,30.06,29.88,9,2,9,0.00
2013-2-12,60,50,43,24,16,9,35,26,17,29.97,29.76,6,0,10,0.00
2013-2-13,56,48,42,24,16,4,36,29,17,29.79,29.59,15,2,16,0.00
2013-2-14,59,44,32,15,7,0,30,22,17,29.94,29.76,7,1,8,0.00
2013-2-15,64,46,32,21,10,3,31,23,15,29.97,29.82,11,2,11,0.00
2013-2-16,53,42,30,11,4,-3,23,21,18,29.94,29.70,14,3,17,0.00
2013-2-17,50,36,28,9,1,-7,23,22,19,30.15,29.94,14,4,18,0.00
2013-2-18,62,42,26,15,4,-8,24,20,16,30.24,30.06,8,1,11,0.00
2013-2-19,58,46,39,19,8,2,30,22,17,30.06,29.79,13,3,17,0.04
2013-2-20,65,46,31,16,6,-2,23,20,15,30.00,29.91,7,2,11,0.00
2013-2-21,63,46,31,16,6,-3,23,20,16,30.09,29.94,6,1,8,0.00
2013-2-22,45,43,40,15,13,8,32,30,22,30.12,29.97,5,1,9,0.00
2013-2-23,48,45,42,24,20,15,39,37,32,30.00,29.73,4,0,5,0.00
2013-2-24,72,54,40,35,19,6,48,29,14,29.88,29.76,7,2,8,0.00
2013-2-25,55,46,39,12,7,3,26,20,17,30.03,29.85,6,2,9,0.00
2013-2-26,47,42,38,22,16,7,39,36,26,29.88,29.50,7,2,10,0.00
2013-2-27,62,50,41,16,11,7,33,22,16,29.70,29.59,11,4,14,0.00
2013-2-28,54,44,36,11,5,0,21,20,18,29.79,29.64,16,5,17,0.00
2013-3-1,58,43,30,13,5,-3,26,20,17,29.82,29.73,6,1,8,0.00
2013-3-2,52,42,34,15,5,0,29,22,18,29.82,29.73,10,2,11,0.04
2013-3-3,57,39,28,12,2,-5,23,21,17,29.91,29.76,9,2,10,0.00
2013-3-4,62,42,26,15,4,-8,24,20,16,30.03,29.88,7,1,10,0.00
2013-3-5,54,45,37,26,10,1,40,24,20,29.94,29.56,12,1,21,0.00
2013-3-6,50,40,34,9,3,-1,24,21,19,30.00,29.64,14,6,19,0.00
2013-3-7,65,45,29,16,6,-3,30,21,15,30.12,30.00,8,1,9,0.00
2013-3-8,66,46,31,17,6,-3,25,20,15,30.18,30.06,6,1,7,0.00
2013-3-9,68,49,32,18,8,-2,25,19,15,30.24,30.09,6,1,8,0.00
2013-3-10,72,54,41,20,11,4,23,18,14,30.18,30.03,5,1,6,0.00
2013-3-11,62,54,48,31,18,7,38,24,19,30.03,29.70,8,0,10,0.04
2013-3-12,75,59,49,36,24,9,45,30,13,29.91,29.64,11,2,14,0.00
2013-3-13,58,47,38,14,7,1,21,19,17,30.06,29.91,15,4,17,0.00
2013-3-14,62,45,31,15,6,-3,23,20,16,30.21,30.03,9,2,9,0.00
2013-3-15,74,53,32,20,10,-2,23,18,13,30.06,29.79,12,2,18,0.00
2013-3-16,80,65,55,23,16,11,17,15,12,29.82,29.67,11,4,15,0.00
2013-3-17,81,65,50,23,16,9,23,16,12,29.88,29.76,8,2,12,0.00
2013-3-18,60,48,46,21,14,7,36,26,16,29.97,29.76,7,1,10,0.00
2013-3-19,71,54,42,30,18,7,41,26,14,29.94,29.73,12,2,15,0.00
2013-3-20,66,50,40,17,9,3,21,19,15,30.00,29.70,11,2,16,0.00
2013-3-21,55,42,34,12,4,-1,22,20,17,29.82,29.70,12,5,19,0.00
2013-3-22,54,43,33,11,5,-2,22,20,18,29.94,29.82,6,1,7,0.00
2013-3-23,58,48,42,22,13,4,28,24,19,29.91,29.76,5,0,6,0.00
2013-3-24,56,49,46,27,19,14,39,31,25,29.76,29.44,7,1,10,0.00
2013-3-25,47,42,36,18,5,0,33,21,19,29.85,29.47,20,8,24,0.00
2013-3-26,54,41,32,11,4,-2,23,21,18,30.09,29.82,10,4,13,0.00
2013-3-27,66,46,31,17,6,-3,23,19,15,30.15,30.03,9,2,10,0.00
2013-3-28,68,48,30,18,7,-3,23,19,15,30.21,30.03,12,2,18,0.00
2013-3-29,63,48,32,16,8,-2,23,19,16,30.24,30.09,8,1,8,0.00
2013-3-30,75,58,47,21,15,8,28,19,13,30.09,29.91,8,1,8,0.00
2013-3-31,71,59,52,35,24,11,39,26,14,29.94,29.73,11,3,13,0.56
2013-4-1,77,63,51,32,22,12,39,23,13,29.88,29.73,11,2,11,0.00
2013-4-2,77,60,48,22,14,7,19,16,13,30.03,29.88,11,3,15,0.00
2013-4-3,66,58,50,17,13,9,19,17,15,30.12,29.97,8,2,10,0.00
2013-4-4,55,47,41,14,10,4,30,23,17,30.09,29.85,9,2,10,0.44
2013-4-5,72,54,41,22,16,9,34,23,13,29.94,29.79,6,1,7,0.00
2013-4-6,78,57,39,23,15,9,30,20,13,30.09,29.94,5,1,7,0.00
2013-4-7,79,60,42,23,15,6,28,18,12,30.12,29.97,7,1,9,0.00
2013-4-8,81,65,51,28,19,10,27,18,12,30.06,29.94,9,1,10,0.00
2013-4-9,88,69,53,31,23,16,32,19,11,30.09,29.97,9,1,10,0.00
2013-4-10,90,71,56,36,25,16,34,19,11,30.00,29.85,8,1,9,0.00
2013-4-11,82,69,58,35,26,19,33,21,12,29.85,29.62,7,1,11,0.16
2013-4-12,76,67,60,42,29,14,43,27,13,29.73,29.56,14,5,21,0.67
2013-4-13,85,66,47,28,18,7,26,16,11,29.88,29.73,7,1,9,0.00
2013-4-14,72,61,50,23,16,9,26,17,14,29.97,29.85,5,0,8,0.00
2013-4-15,79,65,57,39,26,18,37,25,13,30.06,29.85,7,1,7,0.12
2013-4-16,86,71,62,33,26,18,28,20,12,30.18,30.06,5,1,8,0.00
2013-4-17,88,68,61,39,31,19,36,26,12,30.12,30.00,9,1,9,0.12
2013-4-18,84,70,62,44,32,19,43,28,12,30.03,29.85,7,1,7,0.00
2013-4-19,69,63,50,41,32,18,39,32,19,29.85,29.67,10,2,11,0.63
2013-4-20,71,55,41,19,15,10,29,21,14,30.12,29.82,6,1,9,0.00
2013-4-21,74,58,44,20,13,6,27,18,13,30.26,30.12,7,2,9,0.00
2013-4-22,74,60,49,20,14,9,19,16,13,30.26,30.06,7,2,9,0.00
2013-4-23,76,60,45,21,14,6,22,17,13,30.15,29.97,5,1,6,0.00
2013-4-24,76,62,51,30,22,12,29,22,13,30.03,29.91,12,2,18,0.00
2013-4-25,79,64,52,33,23,12,34,23,12,30.15,29.94,6,1,8,0.00
2013-4-26,77,62,46,22,15,6,21,16,13,30.29,30.12,6,1,8,0.00
2013-4-27,61,58,55,30,23,13,36,27,16,30.24,30.12,4,0,6,0.12
2013-4-28,57,55,53,36,32,29,45,42,36,30.12,29.94,0,0,4,0.48
2013-4-29,76,64,56,45,32,19,47,33,15,29.97,29.82,6,1,8,0.00
2013-4-30,82,67,55,40,27,18,38,24,12,30.03,29.88,7,1,9,0.00
2013-5-1,72,65,60,27,23,16,25,20,14,30.12,30.03,7,1,8,0.00
2013-5-2,68,62,60,29,26,18,27,24,21,30.15,30.09,6,1,7,0.00
2013-5-3,64,60,58,32,27,22,35,28,21,30.09,29.94,7,2,8,0.00
2013-5-4,60,56,53,29,23,14,38,28,19,29.97,29.79,6,1,7,0.71
2013-5-5,56,54,51,35,32,29,46,43,38,29.85,29.67,8,0,8,0.12
2013-5-6,67,57,50,35,27,15,46,33,18,29.79,29.67,8,0,10,0.00
2013-5-7,73,58,48,30,21,13,36,25,13,29.85,29.76,8,0,9,0.00
2013-5-8,72,61,50,39,27,19,39,29,16,29.91,29.82,7,1,9,0.00
2013-5-9,85,66,55,40,29,17,36,26,12,29.97,29.91,6,0,9,0.00
2013-5-10,79,67,57,42,31,22,39,28,15,29.97,29.85,7,0,10,0.00
2013-5-11,76,68,62,40,32,20,36,28,15,29.88,29.73,10,2,15,0.00
2013-5-12,76,64,53,33,24,11,36,24,13,29.94,29.76,8,2,12,0.00
2013-5-13,74,60,46,20,14,6,19,16,13,30.09,29.94,9,2,13,0.00
2013-5-14,77,62,45,22,15,6,22,16,13,30.15,29.97,5,1,9,0.00
2013-5-15,91,74,62,31,23,15,20,15,11,30.00,29.85,7,2,10,0.00
2013-5-16,82,70,61,32,24,16,25,18,12,29.94,29.88,7,1,8,0.00
2013-5-17,84,71,61,42,28,19,35,22,12,30.00,29.91,0,0,0,0.00
2013-5-18,76,68,64,49,37,21,42,33,20,30.03,29.94,5,0,6,0.00
2013-5-19,73,69,67,50,43,38,46,39,32,30.00,29.91,3,0,4,0.00
2013-5-20,83,71,63,51,39,25,46,33,14,30.00,29.91,4,0,5,0.00
2013-5-21,89,73,66,52,38,22,43,30,12,29.94,29.82,4,0,5,0.00
2013-5-22,86,72,65,51,37,24,44,30,13,29.91,29.76,4,0,4,0.00
2013-5-23,83,72,65,52,35,18,45,29,11,29.85,29.73,11,2,15,0.00
2013-5-24,82,70,60,28,19,14,18,14,11,30.09,29.82,6,1,9,0.00
2013-5-25,78,64,50,23,16,9,20,16,13,30.21,30.06,4,0,7,0.00
2013-5-26,76,66,58,23,19,14,21,16,13,30.18,30.06,4,0,5,0.00
2013-5-27,84,70,58,36,26,16,34,20,11,30.15,30.03,0,0,0,0.00
2013-5-28,86,73,64,40,30,20,35,22,12,30.12,30.03,4,0,5,0.00
2013-5-29,85,73,64,40,30,20,34,21,12,30.15,30.06,3,0,4,0.00
2013-5-30,85,74,65,41,30,21,33,22,12,30.18,30.06,0,0,4,0.00
2013-5-31,87,75,67,42,32,22,35,22,13,30.12,30.00,5,0,7,0.00
2013-6-1,86,75,69,41,33,24,33,23,13,30.03,29.91,6,1,7,0.00
2013-6-2,78,71,69,48,41,32,42,34,27,29.94,29.82,3,0,4,0.04
2013-6-3,83,72,68,54,45,32,47,38,22,29.85,29.73,6,0,8,0.00
2013-6-4,87,74,65,47,36,24,43,28,13,29.94,29.85,4,0,5,0.00
2013-6-5,85,74,67,43,34,24,34,24,13,29.97,29.85,10,0,10,0.31
2013-6-6,74,69,66,50,45,37,44,41,35,29.91,29.70,4,0,10,0.24
2013-6-7,84,72,68,56,45,31,49,40,20,29.73,29.59,7,1,12,0.64
2013-6-8,85,74,67,53,38,26,46,30,13,30.00,29.70,5,0,7,0.00
2013-6-9,87,73,68,49,41,28,42,33,14,30.03,29.91,5,0,8,0.91
2013-6-10,78,72,67,51,45,36,47,38,24,29.97,29.82,12,2,25,0.94
2013-6-11,88,77,70,55,39,25,46,28,13,29.91,29.82,6,1,8,0.63
2013-6-12,88,76,67,47,38,27,36,26,15,29.94,29.82,6,1,8,0.00
2013-6-13,92,78,70,44,37,24,37,24,12,29.85,29.62,13,2,16,0.24
2013-6-14,85,73,63,43,32,18,41,25,12,29.94,29.70,0,0,4,0.00
2013-6-15,86,74,62,33,25,18,25,17,11,30.03,29.91,0,0,0,0.00
2013-6-16,87,75,65,42,32,25,36,22,13,30.06,29.91,8,1,8,0.00
2013-6-17,84,74,69,52,41,32,42,31,21,29.97,29.82,9,1,15,0.40
2013-6-18,84,75,70,54,42,33,45,32,19,29.88,29.70,10,2,14,0.24
2013-6-19,83,74,69,43,35,26,34,25,14,30.00,29.76,4,0,4,0.00
2013-6-20,86,74,67,46,35,24,38,26,13,30.12,30.00,4,0,5,0.00
2013-6-21,86,74,67,41,33,21,35,24,13,30.18,30.06,0,0,0,0.00
2013-6-22,86,74,66,41,31,21,34,22,12,30.15,30.00,4,0,5,0.00
2013-6-23,88,75,66,45,34,26,34,23,13,30.12,30.00,4,0,4,0.00
2013-6-24,86,76,70,54,39,28,43,28,13,30.12,30.00,0,0,5,0.08
2013-6-25,88,76,69,52,39,27,43,28,13,30.06,29.91,5,0,7,0.00
2013-6-26,88,77,70,54,39,26,43,28,13,29.97,29.82,9,1,10,0.00
2013-6-27,90,79,72,52,39,29,41,26,12,29.88,29.64,11,2,16,0.00
2013-6-28,92,79,71,48,35,26,33,21,11,29.73,29.53,11,1,13,0.00
2013-6-29,89,78,69,48,35,21,38,23,11,29.62,29.56,10,2,13,0.00
2013-6-30,90,76,70,45,33,24,33,22,12,29.73,29.62,3,0,4,0.00
2013-7-1,86,74,69,52,39,26,41,29,13,29.85,29.70,7,0,11,0.36
2013-7-2,84,75,69,54,44,31,47,35,16,30.03,29.85,5,0,6,0.04
2013-7-3,81,73,68,55,45,38,44,38,30,30.12,30.00,6,1,8,2.40
2013-7-4,77,70,67,57,49,44,51,47,42,30.12,30.03,6,0,8,1.87
2013-7-5,82,73,70,60,48,33,55,43,20,30.15,30.06,4,0,7,0.64
2013-7-6,85,74,70,59,48,35,51,41,20,30.12,30.00,5,0,8,1.23
2013-7-7,82,74,71,56,49,41,49,41,27,30.06,30.00,6,0,9,1.70
2013-7-8,88,77,70,58,47,31,50,37,15,30.09,30.00,5,0,7,0.20
2013-7-9,88,76,70,58,44,33,47,34,18,30.12,29.97,5,0,10,0.32
2013-7-10,86,75,72,55,46,32,46,36,19,30.03,29.88,10,0,13,0.04
2013-7-11,79,74,69,55,51,41,49,44,35,29.91,29.79,4,0,10,0.28
2013-7-12,88,72,67,58,45,33,49,38,18,29.88,29.79,6,0,10,0.51
2013-7-13,79,72,67,53,45,41,45,38,32,30.00,29.88,4,0,5,3.08
2013-7-14,80,73,70,59,49,43,50,43,35,30.15,29.97,6,0,6,0.84
2013-7-15,84,75,70,60,48,36,53,40,21,30.21,30.15,4,0,5,0.70
2013-7-16,88,77,70,62,45,33,52,35,15,30.21,30.12,0,0,0,0.00
2013-7-17,89,76,70,57,45,25,47,35,14,30.18,30.03,4,0,6,0.12
2013-7-18,89,77,69,58,44,31,50,34,15,30.12,29.97,4,0,5,0.00
2013-7-19,90,78,71,56,44,27,46,32,12,30.03,29.88,4,0,5,0.00
2013-7-20,89,76,73,56,46,28,45,36,16,29.94,29.85,5,0,6,0.04
2013-7-21,88,75,71,59,48,32,51,40,18,29.94,29.82,7,1,11,2.76
2013-7-22,87,76,70,59,46,35,51,36,18,29.91,29.76,8,2,13,0.00
2013-7-23,89,77,70,47,39,28,40,27,12,29.82,29.70,11,3,11,0.00
2013-7-24,76,72,70,51,44,36,42,36,28,29.73,29.67,3,0,5,0.00
2013-7-25,88,79,70,49,36,26,41,22,13,29.91,29.82,7,0,11,0.00
2013-7-26,88,76,69,48,38,27,38,28,13,30.00,29.88,11,0,13,0.63
2013-7-27,81,74,69,57,46,39,49,38,28,29.94,29.79,5,0,13,0.08
2013-7-28,87,75,68,54,41,26,46,32,13,29.91,29.82,6,0,8,0.00
2013-7-29,86,74,66,47,38,26,41,29,13,30.06,29.91,0,0,0,0.00
2013-7-30,87,75,67,43,36,27,34,26,13,30.12,30.03,4,0,4,0.00
2013-7-31,81,75,71,52,42,34,40,32,25,30.06,29.88,6,0,10,0.00
2013-8-1,89,76,72,52,44,31,42,33,15,29.91,29.79,5,1,7,0.04
2013-8-2,87,76,69,50,42,27,44,32,13,29.94,29.82,0,0,4,0.00
2013-8-3,87,77,70,53,39,26,45,28,13,29.94,29.85,8,2,11,0.00
2013-8-4,90,77,71,46,38,27,37,26,12,29.94,29.85,3,0,4,0.12
2013-8-5,86,76,69,44,39,31,36,28,16,29.97,29.88,4,0,6,0.00
2013-8-6,86,76,71,58,46,36,47,35,19,29.97,29.85,8,0,13,5.71
2013-8-7,77,73,72,59,53,47,55,50,43,29.97,29.91,4,0,5,3.74
2013-8-8,81,75,72,61,54,49,55,49,38,30.00,29.91,4,0,6,0.08
2013-8-9,87,76,72,59,51,34,51,42,20,30.00,29.94,11,0,15,0.43
2013-8-10,89,77,72,63,49,34,55,39,18,30.03,29.94,8,1,11,0.04
2013-8-11,90,76,70,57,45,31,48,35,15,30.06,29.97,5,0,8,0.00
2013-8-12,92,78,71,57,45,29,47,33,12,30.03,29.88,5,0,8,0.00
2013-8-13,88,78,72,53,43,30,46,31,13,29.91,29.73,7,2,9,0.00
2013-8-14,82,74,68,44,37,30,34,27,17,29.97,29.79,3,0,4,0.00
2013-8-15,74,69,67,38,32,22,33,25,16,30.03,29.94,5,1,8,0.00
2013-8-16,75,68,66,32,29,27,26,23,20,30.06,29.97,5,0,7,0.00
2013-8-17,69,67,66,42,33,28,43,29,23,30.09,30.03,5,0,7,0.20
2013-8-18,74,69,66,53,47,42,50,45,39,30.12,30.03,7,0,9,0.64
2013-8-19,75,70,68,55,50,47,52,48,43,30.09,30.00,3,0,6,2.05
2013-8-20,80,73,70,55,48,41,51,42,29,30.09,30.00,3,0,4,0.00
2013-8-21,79,73,70,56,49,43,50,43,33,30.15,30.03,4,0,5,0.36
2013-8-22,89,74,68,58,47,33,49,39,19,30.09,29.94,7,0,11,0.55
2013-8-23,87,75,69,56,45,31,50,37,15,30.00,29.88,6,0,8,0.39
2013-8-24,84,73,67,51,38,23,48,32,13,30.18,29.97,5,1,9,0.00
2013-8-25,83,70,63,41,31,22,35,25,14,30.29,30.18,4,0,6,0.00
2013-8-26,84,72,63,44,34,24,40,27,13,30.24,30.03,3,0,4,0.00
2013-8-27,88,74,64,49,38,26,43,30,13,30.06,29.91,0,0,0,0.00
2013-8-28,90,76,68,52,40,27,43,30,12,29.97,29.85,0,0,0,0.00
2013-8-29,90,78,70,52,42,28,42,30,12,29.88,29.79,0,0,0,0.00
2013-8-30,83,76,73,54,47,39,44,35,24,29.97,29.85,0,0,0,1.02
2013-8-31,90,75,71,56,48,33,50,40,18,29.88,29.79,4,0,9,0.08
2013-9-1,86,75,70,60,49,33,53,42,20,29.85,29.73,15,0,18,0.24
2013-9-2,84,75,70,55,46,40,48,37,23,29.82,29.73,0,0,0,0.00
2013-9-3,88,76,67,53,42,34,47,32,16,29.88,29.76,7,1,12,0.71
2013-9-4,86,75,68,50,40,26,43,30,13,30.00,29.88,0,0,0,0.00
2013-9-5,89,76,68,52,41,26,45,31,13,30.03,29.97,0,0,0,0.00
2013-9-6,86,74,67,43,34,24,35,25,13,30.09,29.97,0,0,0,0.00
2013-9-7,85,73,66,46,36,26,42,28,13,30.06,29.91,0,0,0,0.00
2013-9-8,88,75,66,50,39,26,43,30,13,29.91,29.85,0,0,0,0.00
2013-9-9,88,76,68,51,40,27,43,30,13,30.06,29.88,0,0,0,0.00
2013-9-10,88,76,68,52,40,26,44,30,13,30.15,30.03,0,0,0,0.00
2013-9-11,89,76,68,51,40,26,44,30,12,30.15,30.00,0,0,0,0.00
2013-9-12,90,75,70,52,44,26,43,34,13,30.03,29.79,0,0,0,0.00
2013-9-13,86,74,66,45,33,18,39,25,11,29.82,29.70,0,0,0,0.00
2013-9-14,80,68,59,31,24,18,31,20,12,30.00,29.79,0,0,0,0.00
2013-9-15,81,70,63,36,31,24,33,25,14,30.09,30.00,0,0,0,0.00
2013-9-16,87,74,65,47,35,24,41,27,13,30.06,29.94,0,0,0,0.00
2013-9-17,73,70,68,32,25,22,22,19,16,30.21,30.03,4,0,7,0.00
2013-9-18,76,68,65,32,24,19,28,19,15,30.18,30.06,0,0,0,0.00
2013-9-19,84,71,62,44,34,24,40,27,13,30.09,29.97,0,0,0,0.00
2013-9-20,86,74,66,47,36,24,42,27,13,30.00,29.82,0,0,0,0.00
2013-9-21,71,69,66,47,44,34,47,41,32,29.85,29.59,0,0,0,1.58
2013-9-22,81,69,60,50,37,22,51,35,14,29.82,29.64,0,0,0,0.00
2013-9-23,80,69,64,32,28,20,30,22,13,29.94,29.79,0,0,0,0.00
2013-9-24,72,67,63,42,35,30,39,31,23,29.97,29.82,0,0,0,0.00
2013-9-25,68,65,63,44,41,37,47,42,33,29.85,29.76,0,0,0,1.58
2013-9-26,76,67,62,48,39,28,49,37,20,29.94,29.79,0,0,0,0.00
2013-9-27,80,67,59,40,31,22,41,28,14,30.06,29.91,0,0,0,0.00
2013-9-28,78,67,60,34,26,20,33,22,15,30.15,30.03,0,0,0,0.00
2013-9-29,75,65,57,34,26,20,32,23,15,30.09,29.94,0,0,0,0.00
2013-9-30,79,68,60,42,32,19,42,29,13,30.00,29.91,0,0,0,0.00
2013-10-1,82,68,58,41,31,19,41,28,12,30.06,29.94,0,0,0,0.00
2013-10-2,84,69,60,43,34,24,40,29,13,30.06,29.97,0,0,0,0.00
2013-10-3,85,71,62,45,35,24,43,29,13,30.03,29.97,0,0,0,0.00
2013-10-4,86,71,61,45,34,24,42,28,13,30.06,29.97,0,0,0,0.00
2013-10-5,87,72,62,47,35,24,42,28,13,30.03,29.94,0,0,0,0.00
2013-10-6,85,72,65,46,36,24,42,29,13,29.97,29.76,4,0,7,0.39
2013-10-7,80,70,64,51,38,26,45,33,21,29.88,29.73,5,0,9,0.71
2013-10-8,76,65,60,26,22,17,26,20,13,30.06,29.88,7,0,7,0.00
2013-10-9,76,64,55,24,18,13,26,18,13,30.12,30.00,0,0,0,0.00
2013-10-10,80,64,53,37,27,18,37,26,12,30.03,29.88,0,0,0,0.00
2013-10-11,82,67,57,38,29,18,37,26,12,29.94,29.82,0,0,0,0.00
2013-10-12,83,68,58,39,29,19,36,25,12,30.00,29.88,0,0,0,0.00
2013-10-13,77,68,64,42,36,28,38,31,21,30.12,29.97,0,0,0,0.08
2013-10-14,74,67,63,46,38,30,46,35,23,30.12,30.03,0,0,5,0.00
2013-10-15,72,65,59,37,31,25,36,29,19,30.09,29.97,0,0,3,0.00
2013-10-16,74,64,57,41,32,22,43,31,16,30.00,29.85,0,0,0,0.00
2013-10-17,68,65,63,46,41,32,47,41,33,29.91,29.76,4,1,7,0.16
2013-10-18,76,65,59,45,36,21,49,37,16,29.91,29.79,4,0,5,0.00
2013-10-19,65,61,54,38,32,26,42,34,26,29.88,29.76,7,1,8,0.00
2013-10-20,71,57,48,32,23,13,39,28,14,29.97,29.85,4,0,5,0.00
2013-10-21,71,59,49,35,24,19,36,27,17,30.03,29.91,5,0,6,0.00
2013-10-22,71,62,58,37,30,23,39,31,20,29.94,29.73,4,0,7,0.00
2013-10-23,67,56,45,26,17,6,32,23,15,29.94,29.67,10,2,12,0.00
2013-10-24,66,51,39,21,11,4,29,21,15,30.06,29.94,11,2,14,0.00
2013-10-25,62,50,41,15,9,4,23,19,16,30.24,30.06,5,0,6,0.00
2013-10-26,62,47,35,16,8,0,30,21,16,30.24,30.00,8,2,11,0.00
2013-10-27,74,56,44,29,17,6,34,22,13,30.03,29.94,7,1,9,0.00
2013-10-28,68,60,55,38,28,21,40,30,23,30.15,30.00,5,0,7,0.04
2013-10-29,75,60,50,37,25,16,40,28,13,30.24,30.12,3,0,4,0.00
2013-10-30,80,65,57,38,28,18,39,27,13,30.18,30.06,6,0,7,0.00
2013-10-31,68,63,58,38,32,27,39,31,23,30.09,29.79,4,0,6,0.00
2013-11-1,76,67,59,46,36,26,45,34,18,29.82,29.56,8,2,9,0.32
2013-11-2,69,58,50,31,19,10,36,23,14,29.91,29.67,14,1,19,0.00
2013-11-3,68,53,42,24,13,6,29,21,15,30.24,29.91,4,0,5,0.00
2013-11-4,66,52,43,16,13,7,29,21,15,30.38,30.24,5,1,8,0.00
2013-11-5,67,53,44,17,10,6,21,18,15,30.41,30.26,5,1,7,0.00
2013-11-6,71,59,52,30,22,13,35,25,14,30.26,30.03,4,0,7,0.00
2013-11-7,75,60,47,40,23,7,38,25,13,30.03,29.88,9,2,10,0.04
2013-11-8,66,49,38,17,8,2,23,19,15,30.21,30.06,5,0,5,0.00
2013-11-9,64,49,37,18,10,3,29,21,15,30.26,30.12,5,1,7,0.00
2013-11-10,76,58,45,23,14,6,28,19,13,30.12,30.00,8,1,8,0.00
2013-11-11,67,52,42,18,10,4,24,18,15,30.24,30.06,5,0,6,0.00
2013-11-12,68,50,36,22,10,0,29,20,15,30.32,29.97,11,2,11,0.00
2013-11-13,57,41,30,12,3,-4,23,21,17,30.41,30.32,5,1,7,0.00
2013-11-14,64,43,29,16,5,-4,25,20,15,30.35,30.21,6,1,7,0.00
2013-11-15,55,47,36,25,10,0,35,22,17,30.21,30.06,4,0,6,0.24
2013-11-16,60,56,51,35,30,25,41,37,34,30.15,30.06,4,0,5,0.00
2013-11-17,61,59,58,40,37,32,48,43,38,30.09,29.82,4,0,5,0.80
2013-11-18,75,62,52,47,29,10,54,32,13,29.91,29.76,9,2,11,0.00
2013-11-19,65,51,41,16,9,4,21,18,15,30.12,29.88,7,1,7,0.00
2013-11-20,60,50,43,15,9,4,20,19,17,30.29,30.12,7,2,9,0.00
2013-11-21,52,51,49,26,16,8,37,26,19,30.32,30.24,5,1,7,0.20
2013-11-22,62,57,52,40,33,26,45,41,37,30.26,30.03,4,0,5,0.04
2013-11-23,62,56,42,58,39,19,96,56,31,30.25,29.97,6,0,6,0.00
2013-11-24,46,37,30,28,19,11,74,48,25,30.59,30.24,5,0,5,0.00
2013-11-25,42,34,28,30,14,7,84,45,27,30.62,30.39,5,0,5,0.03
2013-11-26,49,43,34,48,42,30,98,97,83,30.39,29.69,4,0,5,3.22
2013-11-27,49,41,28,49,34,21,98,78,47,30.28,29.61,15,1,15,0.19
2013-11-28,46,33,24,33,26,19,94,77,48,30.56,30.28,2,0,4,0.02
2013-11-29,57,39,27,45,30,0,97,73,33,30.64,29.66,3,0,3,0.00
2013-11-30,49,40,33,32,28,25,90,64,39,30.69,30.44,6,0,7,0.00
2013-12-1,56,44,37,43,36,31,94,75,51,30.44,30.07,5,0,5,0.00
2013-12-2,79,47,35,78,44,34,98,89,60,30.08,29.86,3,0,6,0.03
2013-12-3,54,51,48,53,51,48,98,97,92,30.01,29.92,4,0,4,0.18
2013-12-4,59,56,53,58,56,52,99,98,96,30.12,29.99,2,0,2,0.02
2013-12-5,67,62,58,67,61,57,99,99,98,30.14,30.03,6,0,6,0.52
2013-12-6,72,68,63,68,66,62,99,94,85,30.09,29.99,9,0,9,0.29
2013-12-7,65,59,50,62,54,43,98,86,65,30.40,30.02,6,0,7,0.01
2013-12-8,50,42,37,44,40,36,97,92,77,30.42,30.31,5,0,7,0.47
2013-12-9,46,42,37,46,41,36,99,98,96,30.34,30.09,4,0,4,0.99
2013-12-10,59,47,34,52,38,21,99,73,35,30.38,29.98,21,1,21,0.19
2013-12-11,52,38,27,36,30,26,96,76,43,30.52,30.37,6,0,6,0.00
2013-12-12,52,37,28,35,27,17,96,71,25,30.48,30.37,2,0,3,0.00
2013-12-13,51,38,26,36,29,24,94,73,37,30.45,30.31,3,0,3,0.00
2013-12-14,48,45,40,46,43,34,98,95,76,30.31,29.84,4,0,4,1.26
2013-12-15,51,45,32,47,37,29,98,76,47,30.19,29.81,14,1,15,0.00
2013-12-16,59,42,29,39,32,28,97,71,33,30.26,30.16,14,1,17,0.00
2013-12-17,64,48,32,41,35,25,96,65,31,30.24,30.03,22,2,23,0.00
2013-12-18,54,43,33,29,22,13,84,46,21,30.36,30.15,12,0,12,0.00
2013-12-19,61,42,28,36,29,24,90,65,27,30.41,30.28,5,0,5,0.00
2013-12-20,57,45,34,47,39,31,92,81,60,30.32,30.21,2,0,3,0.00
2013-12-21,59,56,50,59,55,47,99,97,89,30.19,30.04,4,0,4,0.11
2013-12-22,66,61,58,64,60,57,99,99,92,30.11,30.00,8,0,8,2.08
2013-12-23,61,55,42,58,53,40,99,93,69,30.21,30.04,7,0,7,0.29
2013-12-24,47,39,29,41,29,20,95,70,36,30.48,30.21,12,1,12,0.00
2013-12-25,41,32,25,25,20,14,83,63,37,30.61,30.45,5,0,5,0.00
2013-12-26,53,36,26,35,28,22,93,75,42,30.47,30.31,3,0,3,0.00
2013-12-27,51,38,28,34,29,24,96,75,38,30.56,30.41,3,0,3,0.00
2013-12-28,48,38,28,42,34,26,96,87,67,30.50,30.13,5,0,5,0.41
2013-12-29,62,48,41,52,45,40,98,88,63,30.14,29.86,10,1,11,0.58
2013-12-30,54,45,36,45,40,35,97,84,64,30.20,30.02,9,1,9,0.00
2013-12-31,54,43,35,38,31,20,93,67,28,30.43,30.18,7,0,8,0.00
2014-1-1,49,39,32,37,33,30,95,80,55,30.46,30.23,2,0,2,0.00
2014-1-2,48,42,28,46,37,16,97,84,57,30.23,29.75,16,1,16,0.17